THOR ABLESTAR DEB, 417

Orbit data source: Space-Track

THOR ABLESTAR DEB, 417 is space debris in LEO originally from a launch on Thu, 29 Jun 1961 UTC launched from the Air Force Eastern Test Range (AFETR). Debris objects in space refer to the collection of defunct objects orbiting the Earth. Examples of debris include non-operational satellites, rocket bodies, and fragments generated from explosions, collisions, or faulty payload assembly.

Loading next visibility...
Identifier
417, 1961-015ES
Orbit
LEO
Country
Flag of USUS
Related business
Manufacturer
Unknown
Mission
Spacecraft
Bus & Motor
Unknown
Mass
Unknown
Launch date (UTC)
1961-06-29 (64 years ago)
Launch vehicle
Unknown
Launch site
Air Force Eastern Test Range (AFETR)
Object type
Payload
Rocket body
Debris
Shape & HBR
Unknown shape, 0.1 m
Radar Cross Section
Small (<0.1 m²)

Expand to show TLE details & history
Last TLE update: 2 days ago

TLE from 2 days ago
0 THOR ABLESTAR DEB
1 00417U 61015ES  25295.55698031  .00001090  00000-0  53183-3 0  9998
2 00417  66.7431 101.8007 0075895 272.5464  86.6943 14.20336965303744
Epoch: 2025-10-22T13:22Z
TLE epoch observation values (Epoch: 2025-10-22T13:22:03.098Z)
Latitude
-0.00003°
Longitude
-129.9411°
Altitude
823.576 km
Speed
7.443 km/s
True Right ascension
06h 47m 12s
True Declination
0° 00' 00"
Sunlit
Object was in daylight at epoch
Visualization orbit readout
Latitude
Unknown
Longitude
Unknown
Altitude
Unknown
Speed
Unknown
Apparent Right ascension
Unknown
Apparent Declination
Unknown
Sunlit
N/A
Visualization observer readout
Local Sidereal Time
00:28:16
Azimuth
Unknown
Elevation
Unknown
Doppler factor
Unknown
Orbital elements
Apogee altitude
877.241 km
Perigee altitude
767.941 km
Semi-major axis
7,200.728 km
Eccentricity
0.00759
Inclination
66.7431°
RAAN
101.8007°
Arg. of periapsis
272.5464°
True anomaly
87.56299°
Mean anomaly
86.6943°
Eccentric anomaly
87.1286°
Mean motion
3.55205 °/min
Orbital period
101.35 mins
BSTAR
0.00053183

Documentation

Showing up to 5 results
|